Cannes-Mandelieu Airport


Codes: LFMD/CEQ
Name: Cannes-Mandelieu Airport
City: Cannes/Mandelieu
Country: France
Elevation: 13 ft.

Photos at Cannes-Mandelieu Airport


   Photos courtesy of SpottingLog. You can add your own sightings and photos by signing up for a free trial today.



No photos found.

Weather at Cannes-Mandelieu Airport


Time (UTC)DescriptionTempratureWindCloud coverageVisibilityPressureHumidity
23-May-2024 21:00Clear Sky19°C7 mph, W0%10000m1015hPa75%
24-May-2024 00:00Clear Sky17°C4 mph, NW2%10000m1016hPa73%
24-May-2024 03:00Broken Clouds16°C7 mph, NE73%10000m1017hPa83%
24-May-2024 06:00Scattered Clouds17°C4 mph, E50%10000m1018hPa78%
24-May-2024 09:00Few Clouds19°C7 mph, SE16%10000m1018hPa69%
24-May-2024 12:00Light Rain19°C9 mph, SE31%10000m1018hPa75%
24-May-2024 15:00Light Rain19°C2 mph, SE50%10000m1018hPa72%
24-May-2024 18:00Light Rain18°C2 mph, S68%10000m1017hPa78%
24-May-2024 21:00Light Rain17°C7 mph, W87%10000m1018hPa81%
25-May-2024 00:00Overcast Clouds17°C4 mph, W93%10000m1017hPa74%
25-May-2024 03:00Scattered Clouds16°C2 mph, N32%10000m1016hPa73%
25-May-2024 06:00Few Clouds17°C7 mph, NE18%10000m1017hPa78%
25-May-2024 09:00Clear Sky19°C7 mph, E4%10000m1017hPa71%
25-May-2024 12:00Light Rain19°C9 mph, SE7%10000m1017hPa73%
25-May-2024 15:00Light Rain19°C4 mph, SE40%10000m1017hPa72%
25-May-2024 18:00Scattered Clouds19°C2 mph, SE29%10000m1017hPa73%
25-May-2024 21:00Scattered Clouds17°C0 mph, N27%10000m1018hPa81%
26-May-2024 00:00Few Clouds17°C2 mph, N13%10000m1018hPa80%
26-May-2024 03:00Few Clouds16°C2 mph, N15%10000m1018hPa78%
26-May-2024 06:00Scattered Clouds18°C2 mph, NE31%10000m1019hPa71%
26-May-2024 09:00Overcast Clouds20°C4 mph, SE100%10000m1020hPa65%
26-May-2024 12:00Broken Clouds20°C7 mph, SE84%10000m1020hPa65%
26-May-2024 15:00Few Clouds21°C7 mph, S14%10000m1020hPa62%
26-May-2024 18:00Few Clouds20°C4 mph, S21%10000m1019hPa71%
26-May-2024 21:00Scattered Clouds18°C2 mph, NE39%10000m1020hPa79%
27-May-2024 00:00Broken Clouds18°C4 mph, NE54%10000m1020hPa78%
27-May-2024 03:00Overcast Clouds17°C2 mph, N88%10000m1020hPa80%
27-May-2024 06:00Overcast Clouds19°C2 mph, NE94%10000m1020hPa78%
27-May-2024 09:00Overcast Clouds20°C4 mph, SE92%10000m1019hPa68%
27-May-2024 12:00Broken Clouds21°C9 mph, S82%10000m1019hPa65%
27-May-2024 15:00Light Rain20°C7 mph, S70%10000m1018hPa78%
27-May-2024 18:00Overcast Clouds21°C4 mph, SW85%10000m1017hPa73%
27-May-2024 21:00Broken Clouds19°C7 mph, W62%10000m1017hPa80%
28-May-2024 00:00Scattered Clouds18°C7 mph, NE31%10000m1016hPa86%
28-May-2024 03:00Overcast Clouds17°C4 mph, NE97%10000m1015hPa90%
28-May-2024 06:00Broken Clouds18°C2 mph, NE77%10000m1015hPa84%
28-May-2024 09:00Overcast Clouds19°C4 mph, SE91%10000m1016hPa78%
28-May-2024 12:00Overcast Clouds20°C7 mph, E89%10000m1015hPa80%
28-May-2024 15:00Overcast Clouds20°C7 mph, E100%10000m1015hPa81%
28-May-2024 18:00Overcast Clouds19°C4 mph, E100%10000m1014hPa87%